Powrót do katalogu

COSMOS 2227

AktywnyMilitariaLEO
NORAD 22284·PAYLOAD·🇷🇺 Russia

Wystrzelony Dec 25, 1992 z Baikonur Cosmodrome

Loading…

Następne Przeloty (najbliższe 24 godziny)

TLE

ŚwieżeSource: Space-Track

Epoka: Sep 14, 2026, 00:25 UTC

1 22284U 92093A   26257.01769577  .00000127  00000-0  92013-4 0  9994
2 22284  70.9826 356.7303 0016466 109.4311 250.8592 14.13795378739380

Śledź COSMOS 2227 w czasie rzeczywistym z AllMySat

Download on the App Store